| time (UTC) | temp C | wind direction | speed KPH | gust KPH | rain 1hr cm | rain 24hr cm | rain mn cm | humidity % | barometer mb |
| 20260505014545 | 6 | 5 | 6.4 | 17.7 | 0.00 | 0.00 | 0.00 | 45 | 1012.2 |
| 20260505014044 | 6 | 5 | 8.0 | 17.7 | 0.00 | 0.00 | 0.00 | 44 | 1012.2 |
| 20260505013643 | 6 | 350 | 8.0 | 17.7 | 0.00 | 0.00 | 0.00 | 44 | 1012.1 |
| 20260505013039 | 7 | 360 | 8.0 | 17.7 | 0.00 | 0.00 | 0.00 | 43 | 1012.0 |
| 20260505012539 | 7 | 355 | 6.4 | 12.9 | 0.00 | 0.00 | 0.00 | 44 | 1011.9 |
| 20260505012039 | 7 | 304 | 6.4 | 14.5 | 0.00 | 0.00 | 0.00 | 43 | 1011.8 |
| 20260505011539 | 7 | 24 | 6.4 | 22.5 | 0.00 | 0.00 | 0.00 | 43 | 1011.7 |
| 20260505011037 | 7 | 182 | 9.7 | 22.5 | 0.00 | 0.00 | 0.00 | 42 | 1011.5 |
| 20260505010536 | 7 | 5 | 8.0 | 17.7 | 0.00 | 0.00 | 0.00 | 42 | 1011.7 |
| 20260505010041 | 7 | 331 | 3.2 | 16.1 | 0.00 | 0.00 | 0.00 | 41 | 1011.6 |
| 20260505005536 | 7 | 5 | 4.8 | 16.1 | 0.00 | 0.00 | 0.00 | 41 | 1011.7 |
| 20260505005036 | 7 | 29 | 4.8 | 16.1 | 0.00 | 0.00 | 0.00 | 42 | 1011.4 |
| 20260505004544 | 8 | 274 | 6.4 | 22.5 | 0.00 | 0.00 | 0.00 | 41 | 1011.5 |
| 20260505004033 | 8 | 319 | 4.8 | 24.1 | 0.00 | 0.00 | 0.00 | 41 | 1011.4 |
| 20260505003534 | 8 | 315 | 6.4 | 19.3 | 0.00 | 0.00 | 0.00 | 39 | 1011.3 |
| 20260505003039 | 8 | 277 | 6.4 | 19.3 | 0.00 | 0.00 | 0.00 | 39 | 1011.3 |
| 20260505002537 | 9 | 11 | 9.7 | 24.1 | 0.00 | 0.00 | 0.00 | 39 | 1011.2 |
| 20260505002036 | 9 | 15 | 14.5 | 24.1 | 0.00 | 0.00 | 0.00 | 37 | 1011.1 |
| 20260505001536 | 10 | 22 | 11.3 | 20.9 | 0.00 | 0.00 | 0.00 | 38 | 1011.0 |
| 20260505001035 | 10 | 336 | 8.0 | 27.4 | 0.00 | 0.00 | 0.00 | 39 | 1010.9 |
| 20260505000539 | 9 | 26 | 14.5 | 27.4 | 0.00 | 0.00 | 0.00 | 40 | 1010.9 |
| 20260505000037 | 9 | 5 | 11.3 | 25.7 | 0.00 | 0.00 | 0.00 | 39 | 1011.0 |
| 20260504235535 | 9 | 360 | 8.0 | 24.1 | 0.00 | 0.00 | 0.00 | 42 | 1011.0 |
| 20260504235034 | 8 | 360 | 8.0 | 24.1 | 0.00 | 0.00 | 0.00 | 41 | 1010.9 |
| 20260504234550 | 8 | 355 | 4.8 | 24.1 | 0.00 | 0.00 | 0.00 | 41 | 1010.7 |
| 20260504234034 | 9 | 325 | 4.8 | 17.7 | 0.00 | 0.00 | 0.00 | 40 | 1010.8 |
| 20260504233635 | 10 | 360 | 6.4 | 22.5 | 0.00 | 0.00 | 0.00 | 39 | 1010.7 |
| 20260504233031 | 10 | 349 | 4.8 | 22.5 | 0.00 | 0.00 | 0.00 | 39 | 1010.9 |
| 20260504232529 | 10 | 11 | 9.7 | 24.1 | 0.00 | 0.00 | 0.00 | 39 | 1010.5 |
| 20260504232029 | 10 | 355 | 8.0 | 24.1 | 0.00 | 0.00 | 0.00 | 40 | 1010.5 |
| 20260504231539 | 10 | 299 | 9.7 | 30.6 | 0.00 | 0.00 | 0.00 | 40 | 1010.6 |
| 20260504231030 | 10 | 321 | 16.1 | 30.6 | 0.00 | 0.00 | 0.00 | 39 | 1010.6 |
| 20260504230528 | 11 | 293 | 9.7 | 22.5 | 0.00 | 0.00 | 0.00 | 39 | 1010.5 |
| 20260504230028 | 11 | 309 | 11.3 | 22.5 | 0.00 | 0.00 | 0.00 | 37 | 1010.4 |
| 20260504225528 | 11 | 5 | 9.7 | 19.3 | 0.00 | 0.00 | 0.00 | 39 | 1010.5 |
| 20260504225031 | 11 | 22 | 8.0 | 20.9 | 0.00 | 0.00 | 0.00 | 40 | 1010.4 |
| 20260504224529 | 11 | 304 | 9.7 | 22.5 | 0.00 | 0.00 | 0.00 | 38 | 1010.3 |
| 20260504224026 | 12 | 9 | 12.9 | 22.5 | 0.00 | 0.00 | 0.00 | 37 | 1010.2 |
| 20260504223626 | 11 | 35 | 11.3 | 24.1 | 0.00 | 0.00 | 0.00 | 38 | 1010.3 |
| 20260504223031 | 11 | 33 | 9.7 | 24.1 | 0.00 | 0.00 | 0.00 | 39 | 1010.3 |
| 20260504222530 | 11 | 349 | 9.7 | 20.9 | 0.00 | 0.00 | 0.00 | 40 | 1010.2 |
| 20260504222029 | 10 | 21 | 8.0 | 29.0 | 0.00 | 0.00 | 0.00 | 38 | 1010.2 |
| 20260504221529 | 11 | 11 | 11.3 | 29.0 | 0.00 | 0.00 | 0.00 | 38 | 1010.2 |
| 20260504221031 | 11 | 313 | 8.0 | 32.2 | 0.00 | 0.00 | 0.00 | 39 | 1010.2 |
| 20260504220529 | 11 | 296 | 16.1 | 32.2 | 0.00 | 0.00 | 0.00 | 37 | 1010.1 |
| 20260504220029 | 11 | 302 | 12.9 | 30.6 | 0.00 | 0.00 | 0.00 | 38 | 1010.1 |
| 20260504215529 | 11 | 293 | 11.3 | 30.6 | 0.00 | 0.00 | 0.00 | 38 | 1009.9 |
| 20260504215028 | 11 | 316 | 14.5 | 30.6 | 0.00 | 0.00 | 0.00 | 39 | 1010.1 |
| 20260504214535 | 11 | 330 | 14.5 | 25.7 | 0.00 | 0.00 | 0.00 | 38 | 1010.0 |
| 20260504214029 | 11 | 324 | 12.9 | 27.4 | 0.00 | 0.00 | 0.00 | 38 | 1010.1 |
| 20260504213629 | 11 | 312 | 14.5 | 33.8 | 0.00 | 0.00 | 0.00 | 38 | 1010.0 |
| 20260504213029 | 11 | 319 | 14.5 | 33.8 | 0.00 | 0.00 | 0.00 | 38 | 1010.1 |
| 20260504212528 | 11 | 20 | 11.3 | 37.0 | 0.00 | 0.00 | 0.00 | 38 | 1010.2 |
| 20260504212025 | 11 | 318 | 14.5 | 35.4 | 0.00 | 0.00 | 0.00 | 39 | 1010.1 |
| 20260504211525 | 11 | 298 | 12.9 | 30.6 | 0.00 | 0.00 | 0.00 | 38 | 1010.0 |
| 20260504211025 | 11 | 336 | 16.1 | 29.0 | 0.00 | 0.00 | 0.00 | 38 | 1010.1 |
| 20260504210525 | 11 | 40 | 8.0 | 27.4 | 0.00 | 0.00 | 0.00 | 39 | 1010.1 |
| 20260504210025 | 11 | 271 | 14.5 | 33.8 | 0.00 | 0.00 | 0.00 | 37 | 1010.1 |
| 20260504205529 | 11 | 345 | 17.7 | 33.8 | 0.00 | 0.00 | 0.00 | 38 | 1010.2 |
| 20260504205024 | 11 | 9 | 9.7 | 41.8 | 0.00 | 0.00 | 0.00 | 39 | 1010.0 |
| 20260504204551 | 11 | 305 | 17.7 | 41.8 | 0.00 | 0.00 | 0.00 | 39 | 1010.1 |
| 20260504204025 | 11 | 321 | 14.5 | 32.2 | 0.00 | 0.00 | 0.00 | 39 | 1010.1 |
| 20260504203624 | 11 | 323 | 14.5 | 40.2 | 0.00 | 0.00 | 0.00 | 39 | 1010.0 |
| 20260504203028 | 11 | 284 | 16.1 | 40.2 | 0.00 | 0.00 | 0.00 | 39 | 1010.0 |
| 20260504202523 | 11 | 326 | 17.7 | 32.2 | 0.00 | 0.00 | 0.00 | 39 | 1010.1 |
| 20260504202022 | 11 | 332 | 16.1 | 27.4 | 0.00 | 0.00 | 0.00 | 39 | 1010.0 |
| 20260504201522 | 11 | 334 | 14.5 | 25.7 | 0.00 | 0.00 | 0.00 | 37 | 1010.0 |
| 20260504201020 | 11 | 308 | 8.0 | 25.7 | 0.00 | 0.00 | 0.00 | 39 | 1010.0 |
| 20260504200521 | 11 | 304 | 11.3 | 30.6 | 0.00 | 0.00 | 0.00 | 40 | 1010.0 |
| 20260504200028 | 11 | 292 | 14.5 | 30.6 | 0.00 | 0.00 | 0.00 | 38 | 1010.1 |
| 20260504195519 | 11 | 302 | 12.9 | 30.6 | 0.00 | 0.00 | 0.00 | 41 | 1010.0 |
| 20260504195020 | 11 | 347 | 11.3 | 24.1 | 0.00 | 0.00 | 0.00 | 41 | 1010.1 |
| 20260504194521 | 11 | 319 | 9.7 | 32.2 | 0.00 | 0.00 | 0.00 | 42 | 1010.0 |
| 20260504194023 | 10 | 317 | 16.1 | 32.2 | 0.00 | 0.00 | 0.00 | 40 | 1010.1 |
| 20260504193620 | 11 | 341 | 12.9 | 27.4 | 0.00 | 0.00 | 0.00 | 41 | 1010.0 |
| 20260504193025 | 11 | 287 | 11.3 | 27.4 | 0.00 | 0.00 | 0.00 | 41 | 1010.0 |
| 20260504192526 | 10 | 319 | 12.9 | 27.4 | 0.00 | 0.00 | 0.00 | 42 | 1010.0 |
| 20260504192024 | 10 | 333 | 8.0 | 32.2 | 0.00 | 0.00 | 0.00 | 42 | 1010.0 |
| 20260504191523 | 11 | 332 | 11.3 | 32.2 | 0.00 | 0.00 | 0.00 | 41 | 1010.0 |
| 20260504191024 | 11 | 321 | 12.9 | 27.4 | 0.00 | 0.00 | 0.00 | 40 | 1009.9 |
| 20260504190523 | 11 | 328 | 11.3 | 27.4 | 0.00 | 0.00 | 0.00 | 42 | 1010.0 |
| 20260504190023 | 11 | 232 | 9.7 | 29.0 | 0.00 | 0.00 | 0.00 | 41 | 1010.0 |
| 20260504185522 | 10 | 316 | 14.5 | 29.0 | 0.00 | 0.00 | 0.00 | 44 | 1010.0 |
| 20260504185022 | 10 | 269 | 9.7 | 24.1 | 0.00 | 0.00 | 0.00 | 45 | 1010.1 |
| 20260504184522 | 10 | 18 | 8.0 | 27.4 | 0.00 | 0.00 | 0.00 | 44 | 1009.9 |
| 20260504184024 | 9 | 360 | 9.7 | 32.2 | 0.00 | 0.00 | 0.00 | 46 | 1009.9 |
| 20260504183623 | 9 | 346 | 9.7 | 25.7 | 0.00 | 0.00 | 0.00 | 44 | 1010.1 |
| 20260504183017 | 9 | 14 | 12.9 | 25.7 | 0.00 | 0.00 | 0.00 | 43 | 1009.9 |
| 20260504182519 | 9 | 322 | 9.7 | 32.2 | 0.00 | 0.00 | 0.00 | 44 | 1009.8 |
| 20260504182016 | 9 | 308 | 16.1 | 32.2 | 0.00 | 0.00 | 0.00 | 43 | 1009.9 |
| 20260504181516 | 9 | 313 | 8.0 | 29.0 | 0.00 | 0.00 | 0.00 | 44 | 1009.9 |
| 20260504181017 | 9 | 327 | 11.3 | 29.0 | 0.00 | 0.00 | 0.00 | 44 | 1009.8 |
| 20260504180516 | 10 | 315 | 12.9 | 40.2 | 0.00 | 0.00 | 0.00 | 43 | 1009.9 |
| 20260504180017 | 10 | 342 | 16.1 | 40.2 | 0.00 | 0.00 | 0.00 | 41 | 1009.9 |
| 20260504175516 | 10 | 281 | 11.3 | 25.7 | 0.00 | 0.00 | 0.00 | 43 | 1009.6 |
| 20260504175016 | 10 | 15 | 11.3 | 29.0 | 0.00 | 0.00 | 0.00 | 44 | 1009.6 |
| 20260504174515 | 10 | 293 | 12.9 | 29.0 | 0.00 | 0.00 | 0.00 | 44 | 1009.8 |
| 20260504174016 | 10 | 320 | 16.1 | 29.0 | 0.00 | 0.00 | 0.00 | 43 | 1009.8 |
| 20260504173516 | 10 | 316 | 11.3 | 25.7 | 0.00 | 0.00 | 0.00 | 43 | 1009.7 |
| 20260504173018 | 10 | 265 | 11.3 | 25.7 | 0.00 | 0.00 | 0.00 | 44 | 1009.7 |
| 20260504172518 | 10 | 305 | 16.1 | 25.7 | 0.00 | 0.00 | 0.00 | 43 | 1009.7 |
| 20260504172020 | 10 | 298 | 14.5 | 32.2 | 0.00 | 0.00 | 0.00 | 43 | 1009.7 |
| 20260504171534 | 10 | 302 | 17.7 | 40.2 | 0.00 | 0.00 | 0.00 | 42 | 1009.6 |
| 20260504171018 | 10 | 306 | 16.1 | 40.2 | 0.00 | 0.00 | 0.00 | 43 | 1009.6 |
| 20260504170518 | 11 | 305 | 16.1 | 30.6 | 0.00 | 0.00 | 0.00 | 41 | 1009.7 |
| 20260504151011 | 10 | 305 | 12.9 | 32.2 | 0.00 | 0.00 | 0.00 | 47 | 1009.1 |
| 20260504150512 | 9 | 310 | 12.9 | 32.2 | 0.00 | 0.00 | 0.00 | 47 | 1009.2 |
| 20260504141009 | 8 | 314 | 4.8 | 16.1 | 0.00 | 0.00 | 0.00 | 54 | 1009.1 |
| 20260504140509 | 8 | 355 | 3.2 | 16.1 | 0.00 | 0.00 | 0.00 | 54 | 1009.3 |
| 20260504130505 | 6 | 347 | 3.2 | 8.0 | 0.00 | 0.00 | 0.00 | 59 | 1009.0 |
| 20260504110548 | 6 | 339 | 0.0 | 6.4 | 0.00 | 0.00 | 0.00 | 53 | 1007.4 |
| 20260504100542 | 7 | 360 | 6.4 | 9.7 | 0.00 | 0.00 | 0.00 | 50 | 1007.0 |
| 20260504081558 | 10 | 312 | 4.8 | 12.9 | 0.00 | 0.00 | 0.00 | 55 | 1006.0 |
| 20260504081053 | 10 | 327 | 0.0 | 6.4 | 0.00 | 0.00 | 0.00 | 53 | 1006.0 |
| 20260504080553 | 10 | 344 | 1.6 | 6.4 | 0.00 | 0.00 | 0.00 | 51 | 1005.7 |
| 20260504070154 | 11 | 13 | 11.3 | 22.5 | 0.00 | 0.00 | 0.00 | 44 | 1004.8 |
| 20260504060141 | 10 | 16 | 3.2 | 4.8 | 0.00 | 0.00 | 0.00 | 50 | 1003.7 |
| 20260504050543 | 11 | 13 | 3.2 | 6.4 | 0.00 | 0.00 | 0.00 | 46 | 1003.1 |
| 20260504050144 | 11 | 13 | 4.8 | 6.4 | 0.00 | 0.00 | 0.00 | 44 | 1003.2 |
| 20260504045541 | 12 | 12 | 4.8 | 6.4 | 0.00 | 0.00 | 0.00 | 44 | 1003.2 |
| 20260504045039 | 12 | 5 | 3.2 | 6.4 | 0.00 | 0.00 | 0.00 | 43 | 1003.2 |
| 20260504044542 | 12 | 5 | 4.8 | 6.4 | 0.00 | 0.00 | 0.00 | 43 | 1003.2 |
| 20260504044039 | 13 | 5 | 4.8 | 6.4 | 0.00 | 0.00 | 0.00 | 42 | 1003.2 |
| 20260504043539 | 13 | 5 | 4.8 | 6.4 | 0.00 | 0.00 | 0.00 | 41 | 1003.1 |
| 20260504043040 | 14 | 5 | 3.2 | 12.9 | 0.00 | 0.00 | 0.00 | 40 | 1003.0 |
| 20260504042539 | 14 | 5 | 4.8 | 14.5 | 0.00 | 0.00 | 0.00 | 39 | 1003.0 |
| 20260504042043 | 15 | 355 | 6.4 | 16.1 | 0.00 | 0.00 | 0.00 | 39 | 1002.9 |
| 20260504041539 | 15 | 11 | 9.7 | 19.3 | 0.00 | 0.00 | 0.00 | 38 | 1002.9 |
| 20260504041041 | 15 | 17 | 9.7 | 22.5 | 0.00 | 0.00 | 0.00 | 38 | 1002.6 |
| 20260504040539 | 16 | 34 | 11.3 | 29.0 | 0.00 | 0.00 | 0.00 | 37 | 1002.5 |
| 20260504040140 | 16 | 26 | 14.5 | 29.0 | 0.00 | 0.00 | 0.00 | 36 | 1002.4 |
| 20260504035541 | 17 | 22 | 16.1 | 29.0 | 0.00 | 0.00 | 0.00 | 35 | 1002.2 |
| 20260504035042 | 17 | 5 | 19.3 | 35.4 | 0.00 | 0.00 | 0.00 | 34 | 1002.1 |
| 20260504034542 | 18 | 360 | 8.0 | 24.1 | 0.00 | 0.00 | 0.00 | 34 | 1001.9 |
| 20260504034039 | 18 | 319 | 9.7 | 16.1 | 0.00 | 0.00 | 0.00 | 34 | 1001.5 |
| 20260504033539 | 18 | 327 | 8.0 | 17.7 | 0.00 | 0.00 | 0.00 | 34 | 1001.2 |
| 20260504033041 | 18 | 317 | 6.4 | 17.7 | 0.00 | 0.00 | 0.00 | 34 | 1001.3 |
| 20260504032539 | 18 | 311 | 8.0 | 14.5 | 0.00 | 0.00 | 0.00 | 35 | 1001.3 |
| 20260504032039 | 18 | 315 | 4.8 | 14.5 | 0.00 | 0.00 | 0.00 | 35 | 1001.2 |
| 20260504031539 | 18 | 298 | 4.8 | 16.1 | 0.00 | 0.00 | 0.00 | 35 | 1001.2 |
| 20260504031038 | 18 | 302 | 4.8 | 16.1 | 0.00 | 0.00 | 0.00 | 35 | 1001.0 |
| 20260504030540 | 18 | 281 | 6.4 | 12.9 | 0.00 | 0.00 | 0.00 | 35 | 1001.1 |
| 20260504025540 | 18 | 308 | 4.8 | 14.5 | 0.00 | 0.00 | 0.00 | 34 | 1001.1 |
| 20260504025040 | 18 | 306 | 3.2 | 14.5 | 0.00 | 0.00 | 0.00 | 33 | 1001.2 |
| 20260504024539 | 18 | 316 | 1.6 | 9.7 | 0.00 | 0.00 | 0.00 | 32 | 1001.0 |
| 20260504024039 | 19 | 310 | 3.2 | 14.5 | 0.00 | 0.00 | 0.00 | 31 | 1001.1 |
| 20260504023538 | 20 | 285 | 4.8 | 14.5 | 0.00 | 0.00 | 0.00 | 30 | 1001.0 |
| 20260504023039 | 20 | 299 | 6.4 | 16.1 | 0.00 | 0.00 | 0.00 | 29 | 1001.0 |
| 20260504022538 | 20 | 289 | 8.0 | 20.9 | 0.00 | 0.00 | 0.00 | 29 | 1000.9 |
| 20260504022039 | 20 | 333 | 8.0 | 20.9 | 0.00 | 0.00 | 0.00 | 28 | 1001.1 |
| 20260504021537 | 20 | 310 | 4.8 | 16.1 | 0.00 | 0.00 | 0.00 | 27 | 1000.9 |
| 20260504021038 | 21 | 348 | 6.4 | 27.4 | 0.00 | 0.00 | 0.00 | 26 | 1000.8 |
| 20260504020539 | 21 | 302 | 12.9 | 30.6 | 0.00 | 0.00 | 0.00 | 26 | 1000.6 |
| 20260504015535 | 21 | 286 | 9.7 | 20.9 | 0.00 | 0.00 | 0.00 | 25 | 1000.6 |
| 20260504015036 | 21 | 277 | 8.0 | 22.5 | 0.00 | 0.00 | 0.00 | 25 | 1000.6 |